[[{"header":{"parameterUnit":"m.s-1","parameterCategory":1,"la1":30.2991,"la2":30.254,"lo1":-89.0895,"lo2":-89.0444,"dy":0.0017,"dx":0.0017,"nx":28,"ny":28,"refTime":"2024-05-11T09:00:00:Z","depth":0,"parameterNumber":2,"parameterNumberName":"U-component_of_WINDS"},"data":[0,0,0,0,0,0,0,0,0,0,0,0,0,0,0,0,0,0,0,0,0,0,0,0,0,0,0,0,0,0,0,0,0,0,0,0,0,0,0,0,0,0,0,0,0,0,0,0,0,0,0,0,0,0,0,0,0,0,-2.7624,-2.7624,0,-2.7658,-2.7658,-2.7659,-2.7559,-2.7556,-2.7553,-2.755,-2.7585,-2.7589,-2.7593,0,0,0,0,0,0,0,0,0,0,0,0,0,-2.7472,-2.7475,-2.7624,-2.7624,-2.7625,-2.7658,-2.7658,-2.7659,-2.756,-2.7556,-2.7552,-2.7549,-2.7584,-2.7589,-2.7593,0,0,0,0,0,0,0,0,0,0,0,0,0,-2.7525,-2.7476,-2.7624,-2.7579,-2.7575,-2.7658,-2.7658,-2.7659,-2.756,-2.7556,-2.7551,-2.7547,-2.7583,-2.7588,-2.7594,-2.7721,0,0,-2.7611,-2.7614,0,0,0,0,0,0,0,0,-2.7522,-2.7531,-2.7585,-2.7582,-2.7578,-2.76,-2.7618,-2.768,-2.7562,-2.7566,-2.755,-2.7545,-2.7594,-2.7598,-2.7615,-2.7722,-2.7724,-2.7612,-2.7615,-2.7618,-2.7619,0,0,0,0,0,0,0,-2.7519,-2.7529,-2.7637,-2.7586,-2.7582,-2.7557,-2.756,-2.7629,-2.7605,-2.7565,-2.7558,-2.7564,-2.7591,-2.761,-2.7615,-2.7724,-2.7612,-2.7617,-2.762,-2.7622,-2.7938,-2.7943,0,0,0,0,0,0,-2.7521,-2.7526,-2.7636,-2.7638,-2.7538,-2.7564,-2.7566,-2.7597,-2.7604,-2.7601,-2.7568,-2.7559,-2.7602,-2.7608,-2.7616,-2.7766,-2.7618,-2.7623,-2.7626,-2.7933,-2.7939,-2.7944,0,0,0,0,0,0,-2.7518,-2.7532,-2.7635,-2.758,-2.7592,-2.7571,-2.7607,-2.7601,-2.7619,-2.7606,-2.7601,-2.7591,-2.7599,-2.7608,-2.7695,-2.7765,-2.7625,-2.7631,-2.7927,-2.7935,-2.7942,-2.8066,0,0,0,0,0,0,-2.7514,-2.7531,-2.758,-2.7582,-2.7595,-2.7715,-2.7611,-2.7604,-2.7629,-2.7618,-2.7627,-2.7624,-2.7596,-2.7688,-2.7701,-2.7771,-2.7635,-2.7921,-2.7931,-2.7939,-2.8056,-2.8077,-2.8095,0,0,0,0,0,-2.7509,-2.7613,-2.7582,-2.7596,-2.7655,-2.7719,-2.7726,-2.7692,-2.7635,-2.7683,-2.7675,-2.7623,-2.7755,-2.7697,-2.7712,-2.7784,-2.7916,-2.7928,-2.7939,-2.8047,-2.8073,-2.8095,0,0,0,0,0,0,-2.7619,-2.7613,-2.7579,-2.7687,-2.7704,-2.7702,-2.7762,-2.772,-2.7754,-2.7743,-2.7698,-2.7701,-2.7797,-2.7799,-2.7735,-2.7907,-2.7826,-2.7841,-2.7903,-2.7928,-2.7947,-2.7946,-2.764,0,0,0,0,0,-2.7656,-2.7709,-2.77,-2.7796,-2.7806,-2.7783,-2.7809,-2.7782,-2.7798,-2.7805,-2.7802,-2.782,-2.7865,-2.7896,-2.7937,-2.8055,-2.8055,-2.8111,-2.8131,-2.8147,-2.8161,-2.8224,-2.8249,-2.7981,-2.7981,-2.7981,0,0,-2.7733,-2.7736,-2.7772,-2.7818,-2.7829,-2.7884,-2.779,-2.7852,-2.7893,-2.7814,-2.7897,-2.7896,-2.7913,-2.8016,-2.8062,-2.8021,-2.8235,-2.8162,-2.8175,-2.818,-2.8238,-2.8264,-2.8286,-2.7989,-2.7987,-2.7986,0,0,-2.7902,-2.7909,-2.7991,-2.8002,-2.8019,-2.8002,-2.8022,-2.8026,-2.8022,-2.8105,-2.8047,-2.8094,-2.8173,-2.8187,-2.8205,-2.8378,-2.8332,-2.8392,-2.8496,-2.8558,-2.8579,-2.8598,-2.8661,-2.8684,-2.8406,-2.8406,-2.8406,0,-2.7996,-2.8077,-2.8038,-2.8104,-2.8127,-2.8057,-2.8139,-2.8152,-2.8182,-2.8199,-2.8152,-2.8249,-2.8255,-2.8362,-2.8404,-2.842,-2.8441,-2.8392,-2.8579,-2.8597,-2.8614,-2.8674,-2.8697,-2.8413,-2.8413,-2.8412,-2.8411,0,-2.8192,-2.825,-2.8313,-2.8343,-2.8372,-2.8447,-2.8418,-2.8452,-2.8421,-2.841,-2.8495,-2.8499,-2.854,-2.8562,-2.8533,-2.8665,-2.8639,-2.8586,-2.8504,-2.8648,-2.8703,-2.8725,-2.8424,-2.8421,-2.8419,-2.8417,0,0,-2.8434,-2.844,-2.8464,-2.8477,-2.849,-2.8533,-2.8604,-2.8644,-2.8674,-2.8696,-2.8755,-2.8822,-2.8774,-2.8794,-2.8765,-2.8819,-2.8957,-2.876,-2.8759,-2.8798,-2.9104,-2.9145,-2.9172,-2.8926,-2.893,-2.8933,-2.9103,0,-2.8601,-2.8723,-2.8689,-2.8811,-2.8864,-2.8797,-2.8859,-2.8873,-2.8864,-2.8907,-2.8896,-2.8945,-2.8877,-2.8888,-2.8939,-2.893,-2.9019,-2.8917,-2.8981,-2.8984,-2.8981,-2.9201,-2.9244,-2.9404,-2.9124,-2.9128,-2.913,0,-2.8814,-2.8844,-2.8972,-2.8976,-2.8996,-2.9053,-2.9086,-2.9128,-2.9142,-2.9132,-2.9154,-2.9114,-2.9183,-2.9099,-2.9194,-2.9126,-2.9149,-2.9149,-2.9154,-2.916,-2.9068,-2.9215,-2.9454,-2.9479,-2.9164,-2.9161,-2.9159,0,-2.8979,-2.9052,-2.9138,-2.915,-2.9156,-2.9198,-2.9202,-2.9212,-2.9238,-2.9267,-2.9283,-2.932,-2.9341,-2.937,-2.9341,-2.9282,-2.9441,-2.9354,-2.9435,-2.9436,-2.9473,-2.9472,-2.9722,-2.9485,-2.9485,-2.9485,-2.9484,0,-2.9171,-2.9252,-2.9212,-2.9265,-2.9354,-2.9313,-2.9402,-2.9398,-2.9407,-2.9459,-2.9402,-2.9452,-2.9409,-2.9454,-2.9431,-2.9514,-2.9523,-2.9517,-2.9511,-2.9524,-2.9525,-2.954,-2.9529,-2.9491,-2.9489,-2.9488,-2.9487,0,-2.9372,-2.9348,-2.9438,-2.9436,-2.9437,-2.9503,-2.9501,-2.955,-2.9535,-2.9601,-2.9614,-2.9592,-2.9642,-2.9615,-2.9667,-2.9651,-2.9759,-2.9736,-2.9755,-2.975,-2.9833,-2.9826,-3.0103,-3.0138,-2.9878,-2.988,-2.9882,0,-2.9498,-2.9558,-2.9563,-2.9593,-2.9601,-2.9651,-2.9677,-2.9638,-2.9668,-2.9689,-2.9736,-2.9781,-2.9815,-2.9898,-2.9887,-2.9926,-2.9905,-2.9999,-2.9911,-2.9922,-2.9909,-2.9906,-2.9912,-3.0018,-3.0021,-3.0024,-3.0026,0,-2.9723,-2.9708,-2.9748,-2.9785,-2.9818,-2.9844,-2.9866,-2.9894,-2.9856,-2.9892,-2.9942,-2.9969,-3.0022,-3.0068,-3.0101,-3.0105,-3.006,-3.0053,-3.0074,-3.0089,-3.0098,-3.0096,-2.9806,-3.0048,-3.0046,-3.0044,-3.0043,-3.0042,-2.9891,-2.9942,-2.9953,-3.0,-3.0012,-3.0034,-3.008,-3.0071,-3.0113,-3.0153,-3.0127,-3.0187,-3.0199,-3.024,-3.0249,-3.0296,-3.0258,-3.0288,-3.0296,-3.0305,-3.0317,-3.0089,-3.0301,-3.03,-3.03,-3.0299,-3.0299,0,-3.0114,-3.0118,-3.0161,-3.0194,-3.0231,-3.0184,-3.0205,-3.0239,-3.0293,-3.0308,-3.0343,-3.0401,-3.0445,-3.0437,-3.0477,-3.0515,-3.0495,-3.0527,-3.0525,-3.0527,-3.0347,-3.0326,-3.0542,-3.0542,-3.0542,-3.0542,-3.0542,-3.0542,-3.0235,-3.032,-3.0306,-3.0396,-3.0398,-3.0457,-3.0474,-3.0493,-3.0505,-3.0573,-3.0609,-3.0603,-3.0609,-3.0649,-3.0687,-3.0683,-3.0701,-3.0741,-3.073,-3.0563,-3.0539,-3.0516,-3.0496,-3.0745,-3.0745,-3.0906,-3.0907,-3.0908]},{"header":{"parameterUnit":"m.s-1","parameterCategory":1,"la1":30.2991,"la2":30.254,"lo1":-89.0895,"lo2":-89.0444,"dy":0.0017,"dx":0.0017,"nx":28,"ny":28,"refTime":"2024-05-11T09:00:00:Z","depth":0,"parameterNumber":3,"parameterNumberName":"V-component_of_WINDS"},"data":[0,0,0,0,0,0,0,0,0,0,0,0,0,0,0,0,0,0,0,0,0,0,0,0,0,0,0,0,0,0,0,0,0,0,0,0,0,0,0,0,0,0,0,0,0,0,0,0,0,0,0,0,0,0,0,0,0,0,-5.3711,-5.3712,0,-5.3779,-5.378,-5.3781,-5.3694,-5.3691,-5.3688,-5.3685,-5.3751,-5.3755,-5.376,0,0,0,0,0,0,0,0,0,0,0,0,0,-5.3501,-5.3505,-5.3711,-5.3712,-5.3713,-5.3779,-5.378,-5.3781,-5.3695,-5.3691,-5.3687,-5.3684,-5.3749,-5.3754,-5.376,0,0,0,0,0,0,0,0,0,0,0,0,0,-5.3583,-5.3507,-5.3711,-5.3678,-5.3676,-5.3779,-5.378,-5.3781,-5.3696,-5.3691,-5.3686,-5.3682,-5.3747,-5.3754,-5.3761,-5.3898,0,0,-5.3782,-5.3785,0,0,0,0,0,0,0,0,-5.3578,-5.3591,-5.3682,-5.368,-5.3678,-5.3724,-5.373,-5.382,-5.3697,-5.3688,-5.3685,-5.368,-5.3745,-5.3752,-5.3775,-5.3901,-5.3904,-5.3783,-5.3787,-5.379,-5.3792,0,0,0,0,0,0,0,-5.3573,-5.3587,-5.3738,-5.3683,-5.3681,-5.3658,-5.3664,-5.3746,-5.3742,-5.3688,-5.3682,-5.3692,-5.3743,-5.3768,-5.3776,-5.3905,-5.3783,-5.3789,-5.3793,-5.3796,-5.4146,-5.4151,0,0,0,0,0,0,-5.3572,-5.3583,-5.3736,-5.374,-5.3616,-5.3666,-5.3673,-5.3714,-5.3741,-5.3741,-5.3696,-5.3688,-5.3759,-5.3768,-5.3778,-5.394,-5.379,-5.3797,-5.3801,-5.4141,-5.4147,-5.4153,0,0,0,0,0,0,-5.3567,-5.3586,-5.3733,-5.366,-5.3677,-5.3674,-5.3721,-5.3717,-5.3743,-5.3747,-5.3745,-5.3723,-5.3755,-5.3768,-5.3869,-5.3941,-5.38,-5.3806,-5.4135,-5.4143,-5.415,-5.4266,0,0,0,0,0,0,-5.3562,-5.3585,-5.3639,-5.3662,-5.3681,-5.3825,-5.3725,-5.3722,-5.3756,-5.3746,-5.3772,-5.3771,-5.3753,-5.3859,-5.3876,-5.3948,-5.3812,-5.4128,-5.4139,-5.4148,-5.4256,-5.4277,-5.4295,0,0,0,0,0,-5.3555,-5.3668,-5.3642,-5.3661,-5.3748,-5.3829,-5.384,-5.3818,-5.3762,-5.3815,-5.3817,-5.377,-5.393,-5.387,-5.3888,-5.3964,-5.4124,-5.4136,-5.4147,-5.4247,-5.4273,-5.4294,0,0,0,0,0,0,-5.3652,-5.367,-5.3642,-5.3766,-5.3797,-5.3815,-5.3881,-5.3846,-5.3892,-5.388,-5.3849,-5.3856,-5.3964,-5.3973,-5.3906,-5.4097,-5.4018,-5.4033,-5.4088,-5.4112,-5.4131,-5.4126,-5.3817,0,0,0,0,0,-5.3688,-5.3754,-5.3766,-5.3874,-5.3891,-5.3884,-5.3918,-5.3898,-5.3928,-5.3941,-5.395,-5.398,-5.4036,-5.4074,-5.4127,-5.4256,-5.426,-5.4317,-5.4337,-5.4352,-5.4367,-5.4435,-5.446,-5.419,-5.419,-5.419,0,0,-5.3763,-5.3781,-5.3825,-5.3894,-5.3916,-5.3983,-5.3895,-5.397,-5.402,-5.3951,-5.4048,-5.4056,-5.4087,-5.4203,-5.4254,-5.4214,-5.4442,-5.4367,-5.438,-5.4385,-5.4449,-5.4475,-5.4498,-5.4198,-5.4197,-5.4196,0,0,-5.3934,-5.3955,-5.4048,-5.4071,-5.4106,-5.41,-5.4122,-5.4145,-5.4148,-5.4245,-5.4195,-5.4252,-5.435,-5.4374,-5.4399,-5.4579,-5.4537,-5.4596,-5.4698,-5.4765,-5.4786,-5.4805,-5.4869,-5.4892,-5.461,-5.461,-5.4611,0,-5.4023,-5.4124,-5.4099,-5.4179,-5.421,-5.4152,-5.4245,-5.4268,-5.4318,-5.434,-5.4295,-5.4417,-5.4434,-5.4554,-5.4598,-5.462,-5.4643,-5.4594,-5.4786,-5.4804,-5.4821,-5.4882,-5.4906,-5.4617,-5.4617,-5.4616,-5.4615,0,-5.4231,-5.4302,-5.4372,-5.4423,-5.4462,-5.4548,-5.4534,-5.4576,-5.4553,-5.4551,-5.4649,-5.4667,-5.4722,-5.4749,-5.4726,-5.4866,-5.484,-5.4791,-5.471,-5.4854,-5.4911,-5.4934,-5.4627,-5.4625,-5.4623,-5.4621,0,0,-5.4466,-5.4502,-5.4528,-5.455,-5.4583,-5.4637,-5.4718,-5.4774,-5.481,-5.4845,-5.4913,-5.4997,-5.4952,-5.498,-5.4959,-5.5018,-5.5159,-5.4962,-5.4962,-5.4998,-5.5313,-5.5351,-5.5378,-5.5131,-5.5136,-5.5139,-5.5311,0,-5.4638,-5.4782,-5.4761,-5.4899,-5.4964,-5.4909,-5.498,-5.5007,-5.5008,-5.5061,-5.506,-5.5121,-5.5056,-5.5073,-5.5129,-5.513,-5.5222,-5.5117,-5.5192,-5.5195,-5.5187,-5.5407,-5.5447,-5.5608,-5.5333,-5.5336,-5.5339,0,-5.4858,-5.4903,-5.5048,-5.507,-5.5096,-5.5161,-5.5209,-5.5261,-5.529,-5.5286,-5.5318,-5.5286,-5.5366,-5.5283,-5.5392,-5.5322,-5.5351,-5.5356,-5.5361,-5.5368,-5.5276,-5.542,-5.5659,-5.5684,-5.5373,-5.5371,-5.5368,0,-5.5015,-5.5111,-5.521,-5.5231,-5.5259,-5.5306,-5.532,-5.5344,-5.5378,-5.542,-5.5441,-5.5491,-5.5518,-5.5557,-5.5538,-5.548,-5.5651,-5.5567,-5.5649,-5.5649,-5.5687,-5.5685,-5.5935,-5.5706,-5.5706,-5.5705,-5.5705,0,-5.5209,-5.5299,-5.5281,-5.5342,-5.5442,-5.5416,-5.5515,-5.5521,-5.5543,-5.5603,-5.5558,-5.5615,-5.5587,-5.5642,-5.5627,-5.572,-5.5732,-5.573,-5.5725,-5.5735,-5.5735,-5.5754,-5.5742,-5.5712,-5.571,-5.5709,-5.5708,0,-5.5402,-5.5393,-5.5498,-5.5517,-5.5523,-5.5596,-5.5611,-5.5667,-5.5663,-5.574,-5.5756,-5.575,-5.5812,-5.5797,-5.5864,-5.5854,-5.5971,-5.5951,-5.5962,-5.5957,-5.604,-5.6033,-5.6311,-5.6346,-5.6094,-5.6096,-5.6098,0,-5.5526,-5.5595,-5.5622,-5.5659,-5.5677,-5.5739,-5.5773,-5.575,-5.5788,-5.5825,-5.5877,-5.5935,-5.598,-5.608,-5.6081,-5.6132,-5.6113,-5.6207,-5.6121,-5.6128,-5.6115,-5.6111,-5.6118,-5.6225,-5.6228,-5.623,-5.6232,0,-5.5748,-5.5741,-5.5794,-5.5846,-5.5889,-5.5928,-5.5963,-5.5996,-5.5975,-5.6019,-5.6083,-5.6118,-5.6186,-5.6244,-5.6291,-5.6302,-5.6264,-5.6259,-5.6281,-5.6291,-5.6295,-5.6294,-5.6009,-5.6253,-5.6251,-5.6249,-5.6248,-5.6247,-5.5911,-5.5969,-5.5997,-5.6058,-5.6081,-5.6115,-5.6169,-5.6172,-5.6225,-5.628,-5.6262,-5.6335,-5.636,-5.6419,-5.6436,-5.6491,-5.6455,-5.6487,-5.6495,-5.6503,-5.6513,-5.6286,-5.6499,-5.6499,-5.6498,-5.6497,-5.6497,0,-5.6131,-5.6146,-5.6202,-5.6252,-5.63,-5.626,-5.6296,-5.6338,-5.6402,-5.643,-5.6476,-5.6548,-5.6603,-5.6608,-5.666,-5.6703,-5.6686,-5.6717,-5.6714,-5.6717,-5.6542,-5.6519,-5.673,-5.673,-5.673,-5.673,-5.6729,-5.6729,-5.6251,-5.6348,-5.6343,-5.6451,-5.6464,-5.6536,-5.656,-5.659,-5.6612,-5.6695,-5.6742,-5.6745,-5.6763,-5.6816,-5.6864,-5.6864,-5.6885,-5.6923,-5.6916,-5.6753,-5.673,-5.6707,-5.6685,-5.6928,-5.6928,-5.7086,-5.7088,-5.7089]}]]